| time (UTC) | temp F | wind direction | speed MPH | gust MPH | rain 1hr in | rain 24hr in | rain mn in | humidity % | barometer mb |
| 20260507083522 | 47 | 219 | 5.0 | 11.0 | 0.00 | 0.00 | 0.00 | 91 | 1010.6 |
| 20260507083020 | 47 | 172 | 5.0 | 15.0 | 0.00 | 0.00 | 0.00 | 90 | 1010.9 |
| 20260507082521 | 47 | 156 | 7.0 | 15.0 | 0.00 | 0.00 | 0.00 | 90 | 1010.9 |
| 20260507082035 | 47 | 160 | 6.0 | 13.0 | 0.00 | 0.00 | 0.00 | 90 | 1011.1 |
| 20260507081523 | 47 | 193 | 6.0 | 13.0 | 0.00 | 0.00 | 0.00 | 89 | 1011.1 |
| 20260507081021 | 48 | 158 | 6.0 | 13.0 | 0.00 | 0.00 | 0.00 | 89 | 1011.2 |
| 20260507080516 | 48 | 198 | 5.0 | 10.0 | 0.00 | 0.00 | 0.00 | 89 | 1011.1 |
| 20260507080024 | 48 | 268 | 6.0 | 12.0 | 0.00 | 0.00 | 0.00 | 89 | 1011.2 |
| 20260507075533 | 48 | 215 | 5.0 | 13.0 | 0.00 | 0.00 | 0.00 | 89 | 1011.2 |
| 20260507075031 | 48 | 215 | 5.0 | 14.0 | 0.00 | 0.00 | 0.00 | 89 | 1011.4 |
| 20260507074516 | 48 | 242 | 5.0 | 13.0 | 0.00 | 0.00 | 0.00 | 89 | 1011.2 |
| 20260507074023 | 47 | 171 | 5.0 | 13.0 | 0.00 | 0.00 | 0.00 | 89 | 1011.3 |
| 20260507073522 | 47 | 240 | 5.0 | 13.0 | 0.00 | 0.00 | 0.00 | 89 | 1011.2 |
| 20260507073020 | 47 | 214 | 5.0 | 14.0 | 0.00 | 0.00 | 0.00 | 89 | 1011.3 |
| 20260507072518 | 47 | 146 | 7.0 | 15.0 | 0.00 | 0.00 | 0.00 | 89 | 1011.3 |
| 20260507072027 | 47 | 218 | 6.0 | 15.0 | 0.00 | 0.00 | 0.00 | 89 | 1011.5 |
| 20260507071523 | 47 | 221 | 5.0 | 12.0 | 0.00 | 0.00 | 0.00 | 89 | 1011.6 |
| 20260507071023 | 47 | 117 | 5.0 | 12.0 | 0.00 | 0.00 | 0.00 | 90 | 1011.5 |
| 20260507070531 | 47 | 216 | 6.0 | 14.0 | 0.00 | 0.00 | 0.00 | 90 | 1011.5 |
| 20260507070018 | 47 | 226 | 6.0 | 16.0 | 0.00 | 0.00 | 0.00 | 89 | 1011.8 |
| 20260507065517 | 47 | 181 | 5.0 | 16.0 | 0.00 | 0.00 | 0.00 | 90 | 1012.2 |
| 20260507065023 | 46 | 145 | 5.0 | 13.0 | 0.00 | 0.00 | 0.00 | 90 | 1012.3 |
| 20260507064523 | 46 | 195 | 6.0 | 13.0 | 0.00 | 0.00 | 0.00 | 90 | 1012.3 |
| 20260507064022 | 46 | 150 | 5.0 | 15.0 | 0.00 | 0.00 | 0.00 | 90 | 1012.3 |
| 20260507063516 | 46 | 174 | 5.0 | 10.0 | 0.00 | 0.00 | 0.00 | 90 | 1012.3 |
| 20260507063034 | 46 | 176 | 4.0 | 10.0 | 0.00 | 0.00 | 0.00 | 90 | 1012.1 |
| 20260507062522 | 46 | 192 | 2.0 | 9.0 | 0.00 | 0.00 | 0.00 | 90 | 1012.1 |
| 20260507062020 | 46 | 239 | 3.0 | 9.0 | 0.00 | 0.00 | 0.00 | 90 | 1012.2 |
| 20260507061522 | 46 | 148 | 3.0 | 9.0 | 0.00 | 0.00 | 0.00 | 90 | 1012.4 |
| 20260507061024 | 46 | 256 | 4.0 | 9.0 | 0.00 | 0.00 | 0.00 | 89 | 1012.8 |
| 20260507060522 | 46 | 196 | 4.0 | 9.0 | 0.00 | 0.00 | 0.00 | 89 | 1012.7 |
| 20260507060020 | 47 | 184 | 4.0 | 9.0 | 0.00 | 0.00 | 0.00 | 90 | 1013.0 |
| 20260507055524 | 47 | 216 | 3.0 | 9.0 | 0.00 | 0.00 | 0.00 | 90 | 1013.2 |
| 20260507055016 | 47 | 226 | 5.0 | 10.0 | 0.00 | 0.00 | 0.00 | 90 | 1013.5 |
| 20260507054536 | 47 | 116 | 4.0 | 9.0 | 0.00 | 0.00 | 0.00 | 90 | 1013.5 |
| 20260507054022 | 47 | 184 | 3.0 | 8.0 | 0.00 | 0.00 | 0.00 | 90 | 1013.8 |
| 20260507053520 | 47 | 211 | 3.0 | 8.0 | 0.00 | 0.00 | 0.00 | 89 | 1013.8 |
| 20260507053029 | 47 | 295 | 3.0 | 12.0 | 0.00 | 0.00 | 0.00 | 89 | 1014.0 |
| 20260507052516 | 47 | 254 | 4.0 | 12.0 | 0.00 | 0.00 | 0.00 | 89 | 1014.0 |
| 20260507052034 | 47 | 245 | 2.0 | 11.0 | 0.00 | 0.00 | 0.00 | 89 | 1014.3 |
| 20260507051521 | 47 | 219 | 4.0 | 11.0 | 0.00 | 0.00 | 0.00 | 90 | 1014.4 |
| 20260507051029 | 47 | 215 | 4.0 | 9.0 | 0.00 | 0.00 | 0.00 | 89 | 1014.5 |
| 20260507050517 | 47 | 349 | 3.0 | 9.0 | 0.00 | 0.00 | 0.00 | 90 | 1014.5 |
| 20260507050024 | 47 | 187 | 4.0 | 8.0 | 0.00 | 0.00 | 0.00 | 90 | 1014.6 |
| 20260507045523 | 47 | 160 | 2.0 | 8.0 | 0.00 | 0.00 | 0.00 | 90 | 1014.6 |
| 20260507045019 | 47 | 173 | 4.0 | 8.0 | 0.00 | 0.00 | 0.00 | 90 | 1014.5 |
| 20260507044517 | 47 | 248 | 2.0 | 8.0 | 0.00 | 0.00 | 0.00 | 90 | 1014.6 |
| 20260507044023 | 47 | 141 | 2.0 | 8.0 | 0.00 | 0.00 | 0.00 | 91 | 1014.6 |
| 20260507043523 | 46 | 235 | 2.0 | 8.0 | 0.00 | 0.00 | 0.00 | 91 | 1014.8 |
| 20260507043019 | 46 | 214 | 2.0 | 8.0 | 0.00 | 0.00 | 0.00 | 91 | 1014.9 |
| 20260507042527 | 46 | 226 | 2.0 | 9.0 | 0.00 | 0.00 | 0.00 | 91 | 1015.1 |
| 20260507042024 | 46 | 160 | 2.0 | 9.0 | 0.00 | 0.00 | 0.00 | 91 | 1015.1 |
| 20260507041521 | 46 | 226 | 3.0 | 8.0 | 0.00 | 0.00 | 0.00 | 91 | 1015.1 |
| 20260507041019 | 45 | 150 | 2.0 | 7.0 | 0.00 | 0.00 | 0.00 | 91 | 1015.1 |
| 20260507040516 | 45 | 136 | 1.0 | 6.0 | 0.00 | 0.00 | 0.00 | 91 | 1015.3 |
| 20260507040024 | 45 | 245 | 3.0 | 8.0 | 0.00 | 0.00 | 0.00 | 91 | 1015.4 |
| 20260507035523 | 45 | 264 | 4.0 | 8.0 | 0.00 | 0.00 | 0.00 | 91 | 1015.6 |
| 20260507035021 | 45 | 258 | 0.0 | 6.0 | 0.00 | 0.00 | 0.00 | 90 | 1015.6 |
| 20260507034519 | 45 | 343 | 1.0 | 6.0 | 0.00 | 0.00 | 0.00 | 90 | 1015.8 |
| 20260507034016 | 46 | 231 | 2.0 | 8.0 | 0.00 | 0.00 | 0.00 | 90 | 1015.9 |
| 20260507033523 | 46 | 231 | 3.0 | 8.0 | 0.00 | 0.00 | 0.00 | 90 | 1015.7 |
| 20260507033023 | 46 | 269 | 2.0 | 8.0 | 0.00 | 0.00 | 0.00 | 90 | 1015.9 |
| 20260507032520 | 46 | 135 | 2.0 | 7.0 | 0.00 | 0.00 | 0.00 | 90 | 1015.9 |
| 20260507032019 | 46 | 17 | 2.0 | 9.0 | 0.00 | 0.00 | 0.00 | 90 | 1016.0 |
| 20260507031516 | 46 | 105 | 3.0 | 13.0 | 0.00 | 0.00 | 0.00 | 90 | 1015.8 |
| 20260507031024 | 46 | 184 | 4.0 | 13.0 | 0.00 | 0.00 | 0.00 | 89 | 1015.9 |
| 20260507030523 | 46 | 127 | 4.0 | 8.0 | 0.00 | 0.00 | 0.00 | 89 | 1016.1 |
| 20260507030019 | 46 | 172 | 3.0 | 7.0 | 0.00 | 0.00 | 0.00 | 88 | 1016.3 |
| 20260507025518 | 47 | 155 | 4.0 | 7.0 | 0.00 | 0.00 | 0.00 | 88 | 1016.5 |
| 20260507025023 | 47 | 137 | 1.0 | 4.0 | 0.00 | 0.00 | 0.00 | 89 | 1016.6 |
| 20260507024523 | 47 | 221 | 0.0 | 3.0 | 0.00 | 0.00 | 0.00 | 88 | 1016.7 |
| 20260507024021 | 47 | 291 | 1.0 | 7.0 | 0.00 | 0.00 | 0.00 | 88 | 1016.7 |
| 20260507023518 | 47 | 329 | 1.0 | 7.0 | 0.00 | 0.00 | 0.00 | 88 | 1016.8 |
| 20260507023016 | 47 | 196 | 2.0 | 6.0 | 0.00 | 0.00 | 0.00 | 88 | 1016.9 |
| 20260507022535 | 47 | 261 | 1.0 | 3.0 | 0.00 | 0.00 | 0.00 | 88 | 1016.9 |
| 20260507022038 | 47 | 9 | 1.0 | 6.0 | 0.00 | 0.00 | 0.00 | 88 | 1017.2 |
| 20260507021532 | 47 | 326 | 2.0 | 10.0 | 0.00 | 0.00 | 0.00 | 89 | 1017.3 |
| 20260507021018 | 47 | 269 | 3.0 | 13.0 | 0.00 | 0.00 | 0.00 | 89 | 1017.0 |
| 20260507020524 | 47 | 193 | 3.0 | 13.0 | 0.00 | 0.00 | 0.00 | 89 | 1017.1 |
| 20260507020033 | 47 | 204 | 3.0 | 10.0 | 0.00 | 0.00 | 0.00 | 89 | 1017.4 |
| 20260507015519 | 47 | 245 | 3.0 | 10.0 | 0.00 | 0.00 | 0.00 | 90 | 1017.4 |
| 20260507015029 | 47 | 341 | 0.0 | 5.0 | 0.00 | 0.00 | 0.00 | 89 | 1017.4 |
| 20260507014534 | 47 | 224 | 1.0 | 7.0 | 0.00 | 0.00 | 0.00 | 89 | 1017.6 |
| 20260507014023 | 47 | 241 | 2.0 | 7.0 | 0.00 | 0.00 | 0.00 | 89 | 1017.5 |
| 20260507013522 | 47 | 276 | 3.0 | 10.0 | 0.00 | 0.00 | 0.00 | 90 | 1017.7 |
| 20260507013018 | 47 | 221 | 3.0 | 9.0 | 0.00 | 0.00 | 0.00 | 90 | 1017.8 |
| 20260507012517 | 46 | 253 | 3.0 | 8.0 | 0.00 | 0.00 | 0.00 | 90 | 1017.9 |
| 20260507012025 | 46 | 245 | 1.0 | 3.0 | 0.00 | 0.00 | 0.00 | 90 | 1018.0 |
| 20260507011523 | 46 | 232 | 1.0 | 4.0 | 0.00 | 0.00 | 0.00 | 89 | 1018.1 |
| 20260507011021 | 46 | 303 | 0.0 | 4.0 | 0.00 | 0.00 | 0.00 | 89 | 1018.2 |
| 20260507010518 | 47 | 297 | 2.0 | 5.0 | 0.00 | 0.00 | 0.00 | 89 | 1018.3 |
| 20260507010021 | 47 | 249 | 1.0 | 5.0 | 0.00 | 0.00 | 0.00 | 89 | 1018.3 |
| 20260507004023 | 47 | 226 | 5.0 | 13.0 | 0.00 | 0.00 | 0.00 | 90 | 1018.2 |
| 20260507003521 | 47 | 168 | 5.0 | 13.0 | 0.00 | 0.00 | 0.00 | 90 | 1018.1 |
| 20260507003019 | 47 | 212 | 4.0 | 13.0 | 0.00 | 0.00 | 0.00 | 90 | 1018.1 |
| 20260507002527 | 46 | 153 | 2.0 | 9.0 | 0.00 | 0.00 | 0.00 | 90 | 1018.2 |
| 20260507001517 | 46 | 176 | 3.0 | 11.0 | 0.00 | 0.00 | 0.00 | 90 | 1018.1 |
| 20260506235017 | 47 | 181 | 5.0 | 13.0 | 0.00 | 0.00 | 0.00 | 88 | 1018.1 |
| 20260506234020 | 47 | 229 | 2.0 | 11.0 | 0.00 | 0.00 | 0.00 | 89 | 1018.2 |
| 20260506233516 | 47 | 210 | 4.0 | 11.0 | 0.00 | 0.00 | 0.00 | 89 | 1018.1 |
| 20260506233023 | 47 | 319 | 2.0 | 11.0 | 0.00 | 0.00 | 0.00 | 89 | 1018.2 |
| 20260506232523 | 47 | 95 | 3.0 | 10.0 | 0.00 | 0.00 | 0.00 | 89 | 1018.3 |
| 20260506232021 | 47 | 300 | 3.0 | 7.0 | 0.00 | 0.00 | 0.00 | 88 | 1018.3 |
| 20260506231519 | 47 | 200 | 3.0 | 7.0 | 0.00 | 0.00 | 0.00 | 88 | 1018.4 |
| 20260506231016 | 47 | 248 | 2.0 | 8.0 | 0.00 | 0.00 | 0.00 | 88 | 1018.3 |
| 20260506230535 | 47 | 207 | 2.0 | 8.0 | 0.00 | 0.00 | 0.00 | 88 | 1018.4 |
| 20260506230024 | 47 | 122 | 3.0 | 10.0 | 0.00 | 0.00 | 0.00 | 88 | 1018.4 |
| 20260506225521 | 47 | 204 | 3.0 | 10.0 | 0.00 | 0.00 | 0.00 | 87 | 1018.6 |
| 20260506225019 | 47 | 208 | 3.0 | 6.0 | 0.00 | 0.00 | 0.00 | 87 | 1018.6 |
| 20260506224516 | 48 | 214 | 1.0 | 6.0 | 0.00 | 0.00 | 0.00 | 87 | 1018.6 |
| 20260506224025 | 48 | 252 | 2.0 | 7.0 | 0.00 | 0.00 | 0.00 | 87 | 1018.6 |
| 20260506223523 | 48 | 167 | 2.0 | 7.0 | 0.00 | 0.00 | 0.00 | 87 | 1018.6 |
| 20260506223021 | 48 | 271 | 2.0 | 7.0 | 0.00 | 0.00 | 0.00 | 86 | 1018.4 |
| 20260506222530 | 48 | 230 | 3.0 | 7.0 | 0.00 | 0.00 | 0.00 | 86 | 1018.6 |
| 20260506222017 | 48 | 108 | 2.0 | 9.0 | 0.00 | 0.00 | 0.00 | 85 | 1018.5 |
| 20260506221524 | 48 | 226 | 3.0 | 9.0 | 0.00 | 0.00 | 0.00 | 85 | 1018.5 |
| 20260506221023 | 48 | 253 | 2.0 | 10.0 | 0.00 | 0.00 | 0.00 | 85 | 1018.5 |
| 20260506220532 | 48 | 235 | 2.0 | 8.0 | 0.00 | 0.00 | 0.00 | 85 | 1018.5 |
| 20260506220019 | 48 | 236 | 3.0 | 10.0 | 0.00 | 0.00 | 0.00 | 84 | 1018.4 |
| 20260506215517 | 49 | 229 | 3.0 | 10.0 | 0.00 | 0.00 | 0.00 | 84 | 1018.4 |
| 20260506215035 | 49 | 187 | 3.0 | 10.0 | 0.00 | 0.00 | 0.00 | 83 | 1018.5 |
| 20260506214524 | 49 | 136 | 2.0 | 13.0 | 0.00 | 0.00 | 0.00 | 83 | 1018.4 |
| 20260506214021 | 49 | 81 | 4.0 | 13.0 | 0.00 | 0.00 | 0.00 | 82 | 1018.3 |
| 20260506213518 | 50 | 126 | 3.0 | 11.0 | 0.00 | 0.00 | 0.00 | 82 | 1018.2 |
| 20260506213027 | 50 | 231 | 4.0 | 11.0 | 0.00 | 0.00 | 0.00 | 81 | 1018.3 |
| 20260506212525 | 50 | 219 | 4.0 | 12.0 | 0.00 | 0.00 | 0.00 | 80 | 1018.2 |
| 20260506212023 | 51 | 194 | 4.0 | 12.0 | 0.00 | 0.00 | 0.00 | 80 | 1018.2 |
| 20260506211521 | 51 | 137 | 2.0 | 7.0 | 0.00 | 0.00 | 0.00 | 80 | 1018.3 |
| 20260506211024 | 51 | 255 | 2.0 | 7.0 | 0.00 | 0.00 | 0.00 | 80 | 1018.4 |
| 20260506210517 | 51 | 288 | 2.0 | 7.0 | 0.00 | 0.00 | 0.00 | 79 | 1018.4 |
| 20260506210024 | 52 | 203 | 2.0 | 9.0 | 0.00 | 0.00 | 0.00 | 79 | 1018.6 |
| 20260506205523 | 52 | 212 | 3.0 | 10.0 | 0.00 | 0.00 | 0.00 | 79 | 1018.6 |
| 20260506205021 | 52 | 193 | 4.0 | 10.0 | 0.00 | 0.00 | 0.00 | 78 | 1018.6 |
| 20260506204519 | 52 | 166 | 3.0 | 12.0 | 0.00 | 0.00 | 0.00 | 78 | 1018.5 |
| 20260506204028 | 52 | 217 | 4.0 | 12.0 | 0.00 | 0.00 | 0.00 | 77 | 1018.5 |
| 20260506203535 | 53 | 239 | 4.0 | 14.0 | 0.00 | 0.00 | 0.00 | 76 | 1018.6 |
| 20260506203023 | 54 | 158 | 3.0 | 12.0 | 0.00 | 0.00 | 0.00 | 77 | 1018.7 |
| 20260506202532 | 54 | 243 | 4.0 | 9.0 | 0.00 | 0.00 | 0.00 | 76 | 1018.6 |
| 20260506202020 | 54 | 210 | 4.0 | 11.0 | 0.00 | 0.00 | 0.00 | 76 | 1018.5 |
| 20260506201517 | 53 | 241 | 4.0 | 11.0 | 0.00 | 0.00 | 0.00 | 76 | 1018.6 |
| 20260506201024 | 53 | 184 | 4.0 | 15.0 | 0.00 | 0.00 | 0.00 | 76 | 1018.6 |
| 20260506200523 | 53 | 222 | 7.0 | 15.0 | 0.00 | 0.00 | 0.00 | 76 | 1018.7 |
| 20260506200021 | 54 | 283 | 4.0 | 11.0 | 0.00 | 0.00 | 0.00 | 76 | 1018.7 |
| 20260506195519 | 54 | 238 | 4.0 | 12.0 | 0.00 | 0.00 | 0.00 | 75 | 1018.7 |
| 20260506195017 | 54 | 244 | 5.0 | 12.0 | 0.00 | 0.00 | 0.00 | 76 | 1018.8 |
| 20260506194525 | 54 | 229 | 6.0 | 12.0 | 0.00 | 0.00 | 0.00 | 75 | 1018.9 |
| 20260506194023 | 54 | 206 | 6.0 | 13.0 | 0.00 | 0.00 | 0.00 | 74 | 1019.0 |
| 20260506193521 | 55 | 259 | 6.0 | 14.0 | 0.00 | 0.00 | 0.00 | 75 | 1018.9 |
| 20260506193031 | 54 | 224 | 3.0 | 11.0 | 0.00 | 0.00 | 0.00 | 76 | 1018.9 |
| 20260506192517 | 54 | 144 | 3.0 | 12.0 | 0.00 | 0.00 | 0.00 | 77 | 1018.9 |
| 20260506192024 | 54 | 156 | 3.0 | 16.0 | 0.00 | 0.00 | 0.00 | 78 | 1019.2 |
| 20260506191526 | 53 | 263 | 4.0 | 16.0 | 0.00 | 0.00 | 0.00 | 77 | 1019.2 |
| 20260506191024 | 53 | 224 | 5.0 | 15.0 | 0.00 | 0.00 | 0.00 | 76 | 1019.3 |
| 20260506190522 | 54 | 212 | 3.0 | 11.0 | 0.00 | 0.00 | 0.00 | 76 | 1019.2 |
| 20260506190019 | 54 | 199 | 5.0 | 12.0 | 0.00 | 0.00 | 0.00 | 75 | 1019.2 |
| 20260506185517 | 54 | 231 | 4.0 | 12.0 | 0.00 | 0.00 | 0.00 | 76 | 1019.4 |
| 20260506185025 | 54 | 167 | 4.0 | 10.0 | 0.00 | 0.00 | 0.00 | 75 | 1019.5 |
| 20260506184524 | 54 | 209 | 3.0 | 16.0 | 0.00 | 0.00 | 0.00 | 76 | 1019.7 |
| 20260506184022 | 54 | 237 | 5.0 | 14.0 | 0.00 | 0.00 | 0.00 | 75 | 1019.6 |
| 20260506183519 | 54 | 233 | 7.0 | 14.0 | 0.00 | 0.00 | 0.00 | 75 | 1019.5 |
| 20260506183017 | 54 | 264 | 4.0 | 16.0 | 0.00 | 0.00 | 0.00 | 76 | 1019.6 |
| 20260506182524 | 53 | 266 | 7.0 | 16.0 | 0.00 | 0.00 | 0.00 | 76 | 1019.7 |
| 20260506182023 | 54 | 223 | 6.0 | 15.0 | 0.00 | 0.00 | 0.00 | 75 | 1019.8 |
| 20260506181533 | 55 | 238 | 6.0 | 15.0 | 0.00 | 0.00 | 0.00 | 73 | 1019.8 |
| 20260506181030 | 55 | 240 | 5.0 | 13.0 | 0.00 | 0.00 | 0.00 | 73 | 1019.8 |
| 20260506180517 | 56 | 167 | 3.0 | 13.0 | 0.00 | 0.00 | 0.00 | 74 | 1019.9 |
| 20260506180024 | 56 | 205 | 4.0 | 16.0 | 0.00 | 0.00 | 0.00 | 74 | 1020.0 |
| 20260506175523 | 56 | 219 | 5.0 | 16.0 | 0.00 | 0.00 | 0.00 | 73 | 1019.9 |
| 20260506175032 | 55 | 255 | 4.0 | 16.0 | 0.00 | 0.00 | 0.00 | 75 | 1019.8 |
| 20260506174519 | 55 | 236 | 7.0 | 16.0 | 0.00 | 0.00 | 0.00 | 74 | 1019.8 |
| 20260506174017 | 56 | 270 | 5.0 | 22.0 | 0.00 | 0.00 | 0.00 | 74 | 1019.8 |
| 20260506173536 | 56 | 319 | 6.0 | 16.0 | 0.00 | 0.00 | 0.00 | 73 | 1019.9 |
| 20260506173023 | 56 | 241 | 4.0 | 17.0 | 0.00 | 0.00 | 0.00 | 74 | 1019.7 |
| 20260506172521 | 56 | 241 | 5.0 | 17.0 | 0.00 | 0.00 | 0.00 | 74 | 1020.0 |
| 20260506172030 | 56 | 262 | 6.0 | 14.0 | 0.00 | 0.00 | 0.00 | 74 | 1019.9 |
| 20260506171517 | 57 | 251 | 4.0 | 14.0 | 0.00 | 0.00 | 0.00 | 73 | 1019.8 |
| 20260506171025 | 57 | 200 | 4.0 | 14.0 | 0.00 | 0.00 | 0.00 | 74 | 1019.9 |
| 20260506170524 | 56 | 269 | 3.0 | 14.0 | 0.00 | 0.00 | 0.00 | 76 | 1019.9 |
| 20260506170023 | 55 | 227 | 4.0 | 11.0 | 0.00 | 0.00 | 0.00 | 75 | 1020.0 |
| 20260506165519 | 54 | 271 | 5.0 | 20.0 | 0.00 | 0.00 | 0.00 | 77 | 1020.2 |
| 20260506165028 | 54 | 295 | 7.0 | 20.0 | 0.00 | 0.00 | 0.00 | 76 | 1020.3 |
| 20260506164525 | 55 | 269 | 6.0 | 16.0 | 0.00 | 0.00 | 0.00 | 75 | 1020.1 |
| 20260506164023 | 54 | 233 | 6.0 | 14.0 | 0.00 | 0.00 | 0.00 | 76 | 1020.1 |
| 20260506163521 | 55 | 276 | 6.0 | 14.0 | 0.00 | 0.00 | 0.00 | 75 | 1020.0 |
| 20260506163030 | 54 | 230 | 7.0 | 16.0 | 0.00 | 0.00 | 0.00 | 76 | 1020.0 |
| 20260506162517 | 55 | 239 | 7.0 | 16.0 | 0.00 | 0.00 | 0.00 | 76 | 1019.9 |
| 20260506162026 | 55 | 229 | 6.0 | 16.0 | 0.00 | 0.00 | 0.00 | 75 | 1020.0 |
| 20260506161524 | 55 | 66 | 5.0 | 16.0 | 0.00 | 0.00 | 0.00 | 76 | 1020.2 |
| 20260506161024 | 56 | 213 | 7.0 | 16.0 | 0.00 | 0.00 | 0.00 | 74 | 1020.2 |
| 20260506160521 | 56 | 231 | 5.0 | 12.0 | 0.00 | 0.00 | 0.00 | 74 | 1020.4 |
| 20260506160020 | 57 | 280 | 4.0 | 11.0 | 0.00 | 0.00 | 0.00 | 75 | 1020.4 |
| 20260506155536 | 56 | 302 | 4.0 | 11.0 | 0.00 | 0.00 | 0.00 | 75 | 1020.3 |
| 20260506155024 | 56 | 212 | 4.0 | 16.0 | 0.00 | 0.00 | 0.00 | 76 | 1020.4 |
| 20260506154524 | 55 | 219 | 4.0 | 16.0 | 0.00 | 0.00 | 0.00 | 77 | 1020.5 |
| 20260506154022 | 55 | 258 | 4.0 | 12.0 | 0.00 | 0.00 | 0.00 | 78 | 1020.6 |
| 20260506153519 | 54 | 220 | 3.0 | 11.0 | 0.00 | 0.00 | 0.00 | 79 | 1020.3 |
| 20260506153029 | 54 | 191 | 6.0 | 11.0 | 0.00 | 0.00 | 0.00 | 77 | 1020.4 |
| 20260506152525 | 54 | 151 | 3.0 | 12.0 | 0.00 | 0.00 | 0.00 | 80 | 1020.5 |
| 20260506152029 | 53 | 263 | 4.0 | 14.0 | 0.00 | 0.00 | 0.00 | 80 | 1020.4 |
| 20260506151522 | 53 | 293 | 5.0 | 14.0 | 0.00 | 0.00 | 0.00 | 80 | 1020.5 |
| 20260506151020 | 52 | 288 | 3.0 | 14.0 | 0.00 | 0.00 | 0.00 | 82 | 1020.6 |
| 20260506150517 | 52 | 238 | 7.0 | 15.0 | 0.00 | 0.00 | 0.00 | 80 | 1020.5 |
| 20260506150037 | 52 | 243 | 5.0 | 12.0 | 0.00 | 0.00 | 0.00 | 80 | 1020.5 |
| 20260506145535 | 52 | 217 | 4.0 | 11.0 | 0.00 | 0.00 | 0.00 | 80 | 1020.5 |
| 20260506145022 | 52 | 210 | 4.0 | 11.0 | 0.00 | 0.00 | 0.00 | 80 | 1020.4 |
| 20260506144519 | 53 | 205 | 4.0 | 12.0 | 0.00 | 0.00 | 0.00 | 80 | 1020.5 |
| 20260506144022 | 52 | 256 | 5.0 | 16.0 | 0.00 | 0.00 | 0.00 | 80 | 1020.6 |
| 20260506143525 | 52 | 288 | 3.0 | 16.0 | 0.00 | 0.00 | 0.00 | 80 | 1020.7 |
| 20260506143024 | 53 | 244 | 6.0 | 12.0 | 0.00 | 0.00 | 0.00 | 79 | 1020.6 |
| 20260506142521 | 54 | 120 | 6.0 | 12.0 | 0.00 | 0.00 | 0.00 | 78 | 1020.5 |
| 20260506142020 | 54 | 297 | 6.0 | 16.0 | 0.00 | 0.00 | 0.00 | 79 | 1020.5 |
| 20260506141518 | 54 | 173 | 7.0 | 16.0 | 0.00 | 0.00 | 0.00 | 79 | 1020.4 |
| 20260506141036 | 54 | 206 | 3.0 | 12.0 | 0.00 | 0.00 | 0.00 | 80 | 1020.4 |
| 20260506140525 | 53 | 233 | 3.0 | 12.0 | 0.00 | 0.00 | 0.00 | 80 | 1020.5 |
| 20260506140024 | 53 | 329 | 3.0 | 12.0 | 0.00 | 0.00 | 0.00 | 81 | 1020.6 |
| 20260506135525 | 53 | 250 | 4.0 | 15.0 | 0.00 | 0.00 | 0.00 | 80 | 1020.4 |
| 20260506135022 | 53 | 257 | 6.0 | 15.0 | 0.00 | 0.00 | 0.00 | 80 | 1020.5 |
| 20260506134532 | 53 | 240 | 4.0 | 12.0 | 0.00 | 0.00 | 0.00 | 79 | 1020.4 |
| 20260506134017 | 54 | 236 | 3.0 | 10.0 | 0.00 | 0.00 | 0.00 | 80 | 1020.3 |
| 20260506133524 | 54 | 202 | 4.0 | 12.0 | 0.00 | 0.00 | 0.00 | 80 | 1020.5 |
| 20260506133025 | 54 | 205 | 2.0 | 14.0 | 0.00 | 0.00 | 0.00 | 81 | 1020.3 |
| 20260506132536 | 54 | 235 | 4.0 | 15.0 | 0.00 | 0.00 | 0.00 | 80 | 1020.2 |
| 20260506132022 | 54 | 255 | 6.0 | 13.0 | 0.00 | 0.00 | 0.00 | 80 | 1020.3 |
| 20260506131531 | 54 | 127 | 5.0 | 13.0 | 0.00 | 0.00 | 0.00 | 80 | 1020.3 |
| 20260506131018 | 54 | 245 | 4.0 | 14.0 | 0.00 | 0.00 | 0.00 | 81 | 1020.3 |
| 20260506130525 | 54 | 169 | 3.0 | 12.0 | 0.00 | 0.00 | 0.00 | 81 | 1020.3 |
| 20260506130034 | 54 | 328 | 4.0 | 12.0 | 0.00 | 0.00 | 0.00 | 81 | 1020.4 |
| 20260506125522 | 54 | 141 | 2.0 | 10.0 | 0.00 | 0.00 | 0.00 | 82 | 1020.5 |
| 20260506125033 | 53 | 9 | 4.0 | 11.0 | 0.00 | 0.00 | 0.00 | 81 | 1020.3 |
| 20260506124520 | 53 | 56 | 3.0 | 11.0 | 0.00 | 0.00 | 0.00 | 82 | 1020.2 |
| 20260506124018 | 53 | 212 | 3.0 | 12.0 | 0.00 | 0.00 | 0.00 | 82 | 1020.2 |
| 20260506123525 | 52 | 243 | 3.0 | 12.0 | 0.00 | 0.00 | 0.00 | 83 | 1020.1 |
| 20260506123024 | 52 | 346 | 4.0 | 11.0 | 0.00 | 0.00 | 0.00 | 82 | 1020.1 |
| 20260506122522 | 52 | 298 | 2.0 | 11.0 | 0.00 | 0.00 | 0.00 | 83 | 1020.1 |
| 20260506122020 | 52 | 200 | 4.0 | 12.0 | 0.00 | 0.00 | 0.00 | 83 | 1020.1 |
| 20260506121518 | 52 | 217 | 4.0 | 12.0 | 0.00 | 0.00 | 0.00 | 84 | 1019.9 |
| 20260506121025 | 51 | 189 | 5.0 | 12.0 | 0.00 | 0.00 | 0.00 | 83 | 1019.8 |
| 20260506120525 | 52 | 248 | 3.0 | 10.0 | 0.00 | 0.00 | 0.00 | 84 | 1019.6 |
| 20260506120022 | 51 | 245 | 4.0 | 11.0 | 0.00 | 0.00 | 0.00 | 84 | 1020.0 |
| 20260506115523 | 51 | 248 | 3.0 | 11.0 | 0.00 | 0.00 | 0.00 | 84 | 1019.8 |
| 20260506115031 | 52 | 304 | 2.0 | 6.0 | 0.00 | 0.00 | 0.00 | 84 | 1020.0 |
| 20260506114518 | 51 | 259 | 2.0 | 8.0 | 0.00 | 0.00 | 0.00 | 86 | 1020.0 |
| 20260506114025 | 50 | 215 | 2.0 | 8.0 | 0.00 | 0.00 | 0.00 | 87 | 1019.7 |
| 20260506113524 | 50 | 249 | 4.0 | 8.0 | 0.00 | 0.00 | 0.00 | 87 | 1019.8 |
| 20260506113024 | 49 | 328 | 2.0 | 9.0 | 0.00 | 0.00 | 0.00 | 88 | 1019.9 |
| 20260506112524 | 49 | 221 | 3.0 | 9.0 | 0.00 | 0.00 | 0.00 | 88 | 1019.8 |
| 20260506112022 | 49 | 258 | 2.0 | 11.0 | 0.00 | 0.00 | 0.00 | 89 | 1019.8 |
| 20260506111521 | 49 | 250 | 4.0 | 11.0 | 0.00 | 0.00 | 0.00 | 89 | 1019.7 |
| 20260506111021 | 48 | 244 | 1.0 | 7.0 | 0.00 | 0.00 | 0.00 | 90 | 1019.7 |
| 20260506110607 | 48 | 266 | 3.0 | 11.0 | 0.00 | 0.00 | 0.00 | 89 | 1019.7 |
| 20260506110020 | 48 | 288 | 3.0 | 11.0 | 0.00 | 0.00 | 0.00 | 89 | 1019.6 |
| 20260506105518 | 48 | 136 | 2.0 | 8.0 | 0.00 | 0.00 | 0.00 | 90 | 1019.6 |
| 20260506105018 | 48 | 226 | 3.0 | 10.0 | 0.00 | 0.00 | 0.00 | 90 | 1019.7 |
| 20260506104525 | 47 | 217 | 4.0 | 10.0 | 0.00 | 0.00 | 0.00 | 90 | 1019.5 |
| 20260506104035 | 47 | 236 | 2.0 | 6.0 | 0.00 | 0.00 | 0.00 | 90 | 1019.7 |
| 20260506103524 | 47 | 242 | 3.0 | 9.0 | 0.00 | 0.00 | 0.00 | 91 | 1019.7 |
| 20260506103024 | 47 | 234 | 3.0 | 9.0 | 0.00 | 0.00 | 0.00 | 91 | 1019.6 |
| 20260506102525 | 47 | 275 | 2.0 | 6.0 | 0.00 | 0.00 | 0.00 | 91 | 1019.6 |
| 20260506102023 | 47 | 251 | 2.0 | 6.0 | 0.00 | 0.00 | 0.00 | 91 | 1019.6 |
| 20260506101539 | 47 | 281 | 1.0 | 7.0 | 0.00 | 0.00 | 0.00 | 91 | 1019.6 |
| 20260506101022 | 47 | 265 | 1.0 | 6.0 | 0.00 | 0.00 | 0.00 | 91 | 1019.5 |
| 20260506100520 | 47 | 228 | 1.0 | 10.0 | 0.00 | 0.00 | 0.00 | 92 | 1019.5 |
| 20260506100018 | 47 | 227 | 2.0 | 10.0 | 0.00 | 0.00 | 0.00 | 92 | 1019.5 |
| 20260506095525 | 46 | 272 | 2.0 | 8.0 | 0.00 | 0.00 | 0.00 | 92 | 1019.5 |
| 20260506095025 | 46 | 240 | 2.0 | 6.0 | 0.00 | 0.00 | 0.00 | 92 | 1019.6 |
| 20260506094524 | 46 | 238 | 1.0 | 6.0 | 0.00 | 0.00 | 0.00 | 92 | 1019.6 |
| 20260506094025 | 46 | 20 | 3.0 | 8.0 | 0.00 | 0.00 | 0.00 | 92 | 1019.5 |
| 20260506093524 | 46 | 243 | 1.0 | 8.0 | 0.00 | 0.00 | 0.00 | 93 | 1019.2 |
| 20260506093022 | 46 | 233 | 1.0 | 7.0 | 0.00 | 0.00 | 0.00 | 93 | 1019.3 |
| 20260506092532 | 46 | 239 | 3.0 | 7.0 | 0.00 | 0.00 | 0.00 | 93 | 1019.2 |
| 20260506092020 | 46 | 180 | 2.0 | 7.0 | 0.00 | 0.00 | 0.00 | 92 | 1019.3 |
| 20260506091518 | 46 | 332 | 1.0 | 7.0 | 0.00 | 0.00 | 0.00 | 92 | 1019.2 |
| 20260506091018 | 46 | 259 | 2.0 | 6.0 | 0.00 | 0.00 | 0.00 | 92 | 1019.2 |
| 20260506090518 | 46 | 174 | 2.0 | 6.0 | 0.00 | 0.00 | 0.00 | 92 | 1019.1 |
| 20260506090018 | 46 | 250 | 2.0 | 6.0 | 0.00 | 0.00 | 0.00 | 92 | 1018.9 |
| 20260506085526 | 46 | 210 | 3.0 | 8.0 | 0.00 | 0.00 | 0.00 | 92 | 1018.9 |
| 20260506085024 | 46 | 249 | 2.0 | 8.0 | 0.00 | 0.00 | 0.00 | 92 | 1019.0 |
| 20260506084535 | 46 | 243 | 2.0 | 10.0 | 0.00 | 0.00 | 0.00 | 92 | 1018.9 |
| 20260506084024 | 46 | 249 | 2.0 | 10.0 | 0.00 | 0.00 | 0.00 | 92 | 1018.9 |